SKYSAT-C2

Last updated on Sun Apr 12 2026 00:02:35 GMT+0000 (Coordinated Universal Time)

1 41773U 16058D 26101.51869731 .00010326 00000+0 25545-3 0 9997 2 41773 97.0241 126.1769 0001300 315.4112 44.7031 15.40623166534780
UTC large
Height (km)
Speed (km/s)
/
Latitude / Longitude
Inclination (degrees)
Orbital Period (minutes)
Azimuth
Elevation
Range (km)
Doppler Factor

Next 0 passes for location: London (51.5072 / 0.1276)

Sorry there are no passes over London.
SKYSAT-C2